Hourly Data Report for October 02, 2020

OTTAWA INTL A
ONTARIO
Current Station Operator: NAVCAN

45°19'00.000" N
75°40'00.000" W
114.90 m
6106001
71628
YOW

Download Data

Hourly Data (October 2020)
Hourly Data Report for October 2, 2020
TIME Temp Definition
°C
Dew Point Definition
°C
Rel Hum Definition
%
Wind Dir Definition
10's deg

Wind Spd Definition
km/h
Visibility Definition
km
Stn Press Definition
kPa
Hmdx Definition


Wind Chill Definition


Weather Definition


00:00 9.2 8.5 96 2 9 24.1 99.95     LegendNANA
01:00 8.9 8.1 95 1 8 24.1 99.98     Mostly Cloudy
02:00 9.3 8.2 93 35 10 24.1 99.97     LegendNANA
03:00 8.9 8.0 94 36 10 24.1 99.95     LegendNANA
04:00 8.2 7.4 95 1 11 24.1 99.92     Mostly Cloudy
05:00 8.0 7.5 97 4 9 24.1 99.97     LegendNANA
06:00 8.7 8.0 96 35 12 24.1 99.97     LegendNANA
07:00 9.3 8.2 93 35 10 24.1 100.01     Mostly Cloudy
08:00 9.9 8.3 89 1 18 24.1 100.03     LegendNANA
09:00 9.7 8.4 92 3 11 16.1 100.07     Rain
10:00 9.3 8.7 95 5 14 12.9 100.05     Rain
11:00 9.5 9.0 96 3 9 16.1 100.07     Rain
12:00 9.4 8.7 95 34 14 24.1 100.08     Rain
13:00 10.1 9.1 94 33 17 24.1 100.05     Rain
14:00 11.1 8.7 85 32 16 24.1 100.06     LegendNANA
15:00 11.1 8.2 82 33 18 24.1 100.06     LegendNANA
16:00 10.8 7.9 82 31 13 24.1 100.13     Mostly Cloudy
17:00 10.4 7.8 84 30 9 24.1 100.19     Rain
18:00 9.3 7.9 91 28 8 24.1 100.22     LegendNANA
19:00 8.9 8.0 94 28 8 24.1 100.29     Mostly Cloudy
20:00 9.1 8.1 94 30 10 24.1 100.32     LegendNANA
21:00 7.6 5.5 86 35 10 24.1 100.39     LegendNANA
22:00 6.2 5.0 92 30 3 24.1 100.47     Mainly Clear
23:00 6.6 4.0 84 35 9 24.1 100.49     LegendNANA

Notes on Data Quality.

Legend

  • E = Estimated
  • M = Missing
  • NA = Not Available*
  • [empty] = Indicates an unobserved value
Date modified: